[[{"header":{"parameterUnit":"m.s-1","parameterCategory":1,"la1":30.2992,"la2":30.254,"lo1":-89.0895,"lo2":-89.0443,"dy":0.0025,"dx":0.0025,"nx":19,"ny":19,"refTime":"2026-04-20T21:00:00:Z","depth":0,"parameterNumber":2,"parameterNumberName":"U-component_of_WINDS"},"data":[0,0,0,-4.0904,-4.0908,-4.1098,-4.1099,-4.1334,-4.1336,0,0,0,0,0,0,0,0,0,0,0,-4.084,-4.0842,-4.0904,-4.0908,-4.1098,-4.1099,-4.1334,-4.1336,0,0,0,0,0,0,0,0,0,0,0,-4.084,-4.0841,-4.0843,-4.0909,-4.1098,-4.1099,-4.1334,-4.1193,0,0,0,0,0,0,0,0,0,0,-4.101,-4.0944,-4.0841,-4.0843,-4.091,-4.1098,-4.1099,-4.1187,-4.1202,-4.1244,0,-4.1277,0,-4.131,-4.1351,-4.1352,0,0,0,-4.0914,-4.0931,-4.0989,-4.0843,-4.0912,-4.1098,-4.1014,-4.1196,-4.1213,-4.1264,-4.1281,-4.129,-4.1314,-4.1353,-4.1354,-4.1571,-4.1571,0,0,-4.0904,-4.0871,-4.0977,-4.0999,-4.0967,-4.1008,-4.102,-4.1206,-4.1223,-4.1282,-4.1295,-4.1318,-4.1354,-4.1356,-4.157,-4.1571,0,0,0,-4.087,-4.0863,-4.0917,-4.0989,-4.1024,-4.1013,-4.1027,-4.1214,-4.1234,-4.1298,-4.1321,-4.1356,-4.1358,-4.1569,-4.157,-4.1573,0,0,0,-4.0863,-4.0844,-4.0912,-4.0894,-4.102,-4.1121,-4.1031,-4.1222,-4.1244,-4.132,-4.1356,-4.1361,-4.1568,-4.157,-4.1571,-4.1579,0,0,0,-4.0831,-4.084,-4.0865,-4.0892,-4.0972,-4.1119,-4.115,-4.1227,-4.1257,-4.1352,-4.1361,-4.1568,-4.157,-4.157,-4.1577,-4.1626,0,0,0,-4.0786,-4.0865,-4.0864,-4.0962,-4.097,-4.1119,-4.1149,-4.1262,-4.1344,-4.1357,-4.1569,-4.157,-4.1569,-4.1575,-4.1624,-4.166,-4.1672,0,0,-4.0868,-4.0874,-4.0934,-4.0939,-4.1078,-4.1093,-4.1235,-4.1341,-4.1382,-4.1506,-4.1512,-4.1572,-4.1577,-4.1625,-4.1755,-4.1764,0,0,0,-4.0949,-4.0991,-4.1036,-4.1111,-4.1194,-4.1266,-4.1355,-4.1395,-4.1502,-4.1438,-4.1605,-4.1609,-4.1639,-4.1657,-4.1665,-4.1693,-4.1578,-4.1578,-4.1578,-4.1015,-4.1062,-4.1164,-4.1234,-4.1308,-4.1399,-4.1463,-4.1533,-4.156,-4.1599,-4.1635,-4.1707,-4.1728,-4.1734,-4.1762,-4.1659,-4.1659,-4.1659,-4.1659,-4.1137,-4.1204,-4.1238,-4.1349,-4.1399,-4.1494,-4.1587,-4.1602,-4.1699,-4.1684,-4.1712,-4.1689,-4.1743,-4.177,-4.166,-4.166,-4.166,-4.166,-4.166,-4.1184,-4.1225,-4.1272,-4.1387,-4.1471,-4.1541,-4.1632,-4.1675,-4.1717,-4.1745,-4.1788,-4.1788,-4.1793,-4.1763,-4.1764,-4.1764,-4.1764,-4.1764,-4.1764,-4.1213,-4.1267,-4.1337,-4.1433,-4.1488,-4.1566,-4.166,-4.1717,-4.179,-4.1814,-4.1815,-4.1837,-4.174,-4.1713,-4.1768,-4.1768,-4.1767,-4.1767,-4.1767,-4.1316,-4.13,-4.1408,-4.1463,-4.158,-4.1661,-4.1716,-4.1827,-4.1881,-4.1925,-4.1943,-4.1864,-4.1873,-4.1867,-4.1845,-4.1932,-4.1932,-4.1932,-4.1932,-4.1355,-4.1364,-4.1485,-4.157,-4.1659,-4.172,-4.1843,-4.1919,-4.1995,-4.2031,-4.2026,-4.2002,-4.1994,-4.2009,-4.2,-4.198,-4.2098,-4.2099,-4.2099,-4.142,-4.1441,-4.1535,-4.1608,-4.1703,-4.1785,-4.1902,-4.2001,-4.2085,-4.2106,-4.2061,-4.2054,-4.2015,-4.2,-4.2017,-4.2002,-4.1967,0,0]},{"header":{"parameterUnit":"m.s-1","parameterCategory":1,"la1":30.2992,"la2":30.254,"lo1":-89.0895,"lo2":-89.0443,"dy":0.0025,"dx":0.0025,"nx":19,"ny":19,"refTime":"2026-04-20T21:00:00:Z","depth":0,"parameterNumber":3,"parameterNumberName":"V-component_of_WINDS"},"data":[0,0,0,5.9694,5.9693,5.9664,5.9664,5.9642,5.9642,0,0,0,0,0,0,0,0,0,0,0,5.9713,5.9713,5.9694,5.9693,5.9665,5.9664,5.9642,5.9642,0,0,0,0,0,0,0,0,0,0,0,5.9712,5.9713,5.9713,5.9693,5.9665,5.9664,5.9642,5.9658,0,0,0,0,0,0,0,0,0,0,5.9684,5.9711,5.9713,5.9713,5.9693,5.9665,5.9664,5.9659,5.9657,5.9662,0,5.967,0,5.9656,5.9642,5.9642,0,0,0,5.9685,5.9713,5.9696,5.9713,5.9693,5.9665,5.9675,5.9658,5.9656,5.966,5.9669,5.9668,5.9656,5.9642,5.9642,5.9699,5.97,0,0,5.9687,5.9712,5.9697,5.9695,5.9702,5.9676,5.9675,5.9657,5.9668,5.9669,5.9667,5.9655,5.9642,5.9642,5.9698,5.9699,0,0,0,5.9697,5.9714,5.9697,5.9697,5.9691,5.9676,5.9674,5.9669,5.9661,5.9667,5.9655,5.9642,5.9641,5.9698,5.9699,5.9756,0,0,0,5.9698,5.972,5.9698,5.9713,5.9691,5.9679,5.9686,5.9662,5.966,5.9655,5.9642,5.9641,5.9697,5.9698,5.9753,5.9778,0,0,0,5.9711,5.9721,5.9721,5.9715,5.9704,5.9679,5.967,5.9661,5.9653,5.9642,5.9641,5.9696,5.9698,5.975,5.9773,5.9801,0,0,0,5.9732,5.977,5.9722,5.976,5.9704,5.9715,5.967,5.9677,5.9674,5.9642,5.9697,5.9699,5.9749,5.977,5.9798,5.9829,5.9844,0,0,5.9795,5.9779,5.9799,5.9755,5.9782,5.9718,5.9752,5.9725,5.97,5.9701,5.9702,5.9754,5.9773,5.98,5.9921,5.9934,0,0,0,5.9828,5.9843,5.9845,5.9844,5.9826,5.9812,5.9777,5.9767,5.9767,5.9706,5.9771,5.9781,5.9796,5.9809,5.982,5.9831,5.9706,5.9706,5.9706,5.9952,5.9919,5.9951,5.9916,5.9917,5.9881,5.9878,5.9859,5.9824,5.9841,5.984,5.9918,5.9934,5.9942,5.9954,5.9854,5.9854,5.9855,5.9855,6.004,6.0056,6.0012,6.0028,5.9993,6.0005,5.9973,5.9949,5.9955,5.9915,5.9926,5.9885,5.9957,5.9965,5.9859,5.9858,5.9857,5.9857,5.9857,6.0117,6.0119,6.0108,6.0106,6.0107,6.0069,6.0078,6.0046,6.0015,6.0027,6.0023,6.0022,6.0017,6.0028,6.0028,6.0028,6.0028,6.0029,6.0029,6.0201,6.0187,6.0198,6.0184,6.018,6.0171,6.0137,6.0132,6.0119,6.0094,6.0094,6.0059,5.997,5.9948,6.0033,6.0032,6.0032,6.0031,6.0031,6.0302,6.0275,6.0293,6.0289,6.027,6.0274,6.0233,6.0227,6.0218,6.0223,6.0186,6.0126,6.0106,6.0098,6.0079,6.0193,6.0193,6.0193,6.0193,6.0367,6.0355,6.0367,6.0364,6.0357,6.0323,6.0344,6.0319,6.0288,6.028,6.0259,6.0233,6.0225,6.021,6.0199,6.0182,6.0319,6.0319,6.0319,6.0427,6.0413,6.0438,6.0409,6.0391,6.0377,6.0396,6.0394,6.0353,6.0323,6.0274,6.0268,6.0225,6.0212,6.0181,6.0164,6.0131,0,0]}]]